Regional Weather Roundup
Issued by NWS Jackson, KY

Home | Current Version | Previous Version | Text Only | Print | Product List | Glossary On
Versions: 1 2 3 4 5 6 7 8 9 10 11 12 13 14 15 16 17 18 19 20 21 22 23 24 25 26 27
000
ASUS43 KJKL 220610
RWRJKL

EAST KENTUCKY HOURLY WEATHER ROUNDUP
NATIONAL WEATHER SERVICE JACKSON KY
100 AM EST WED NOV 22 2017

NOTE: "FAIR" INDICATES FEW OR NO CLOUDS BELOW 12,000 FEET WITH
NO SIGNIFICANT WEATHER AND/OR OBSTRUCTIONS TO VISIBILITY.

* THESE REPORTS ARE NOT UNDER NWS QUALITY CONTROL AND MAY NOT
  REPORT WEATHER SUCH AS PRECIPITATION AND FOG.

KYZ079-080-083-085-087-088-110-112-115-119-120-220700
...EASTERN KENTUCKY...

CITY           SKY/WX    TMP DP  RH WIND       PRES   REMARKS
JACKSON        CLEAR     47  28  47 SW3       30.04S
6HR MIN TEMP:  47; 6HR MAX TEMP:  57;

LONDON         CLOUDY    42  31  64 CALM      30.06S
6HR MIN TEMP:  41; 6HR MAX TEMP:  56;

SOMERSET*      PTCLDY    41  32  70 CALM      30.09S
MONTICELLO*    CLEAR     32  29  88 W8        30.10S WCI  25
6HR MIN TEMP:  32; 6HR MAX TEMP:  50;

WILLIAMSBURG*  CLOUDY    46  32  57 CALM      30.07S
MIDDLESBORO*   CLEAR     46  36  68 CALM      30.06S
6HR MIN TEMP:  45; 6HR MAX TEMP:  55;

HARLAN APT*    MOCLDY    50  32  50 CALM      30.05R
PIKE CO APT*     N/A     48  32  54 W6        30.03S
BIG SANDY APT* CLEAR     49  30  47 CALM      30.03S
6HR MIN TEMP:  49; 6HR MAX TEMP:  59;

MOREHEAD APT*  CLOUDY    45  28  53 NW6       30.07R
$$

KYZ035-036-041-042-044-050-067-078-099-220700
...CENTRAL KENTUCKY...

CITY           SKY/WX    TMP DP  RH WIND       PRES   REMARKS
MT STERLING*   CLOUDY    43  32  65 NW7       30.08R
DANVILLE*      CLOUDY    45  32  61 NW8       30.09R
LEXINGTON      CLOUDY    44  35  70 NW17G31   30.09R
6HR MIN TEMP:  44; 6HR MAX TEMP:  50;

FRANKFORT      MOCLDY    40  30  67 N13       30.11R WCI  32
6HR MIN TEMP:  42; 6HR MAX TEMP:  49;

LOUISVILLE     CLOUDY    42  31  64 N18       30.15R
6HR MIN TEMP:  42; 6HR MAX TEMP:  53;

LEBANON*         N/A     43  34  70 NW10G18   30.10R
GLASGOW*       CLEAR     41  33  73 NW5       30.11S
BOWLING GREEN  CLEAR     45  35  68 NW6       30.14R
6HR MIN TEMP:  39; 6HR MAX TEMP:  52;

$$

KYZ091>093-OHZ055-061-077-WVZ005-015-034-035-042-220700
...SOUTHERN OHIO/WEST VIRGINIA...

CITY           SKY/WX    TMP DP  RH WIND       PRES   REMARKS
COVINGTON      CLOUDY    36  33  89 NW12      30.12R WCI  28
COLUMBUS       LGT RAIN  37  36  96 NW7       30.06R WCI  32
DAYTON         CLOUDY    32  30  92 NW9       30.11R WCI  24
WILMINGTON     CLOUDY    34  34 100 W9        30.08S WCI  27
HUNTINGTON     MOCLDY    49  27  42 W7        30.01S
CHARLESTON     CLOUDY    47  42  83 CALM      30.00F
PINEVILLE*     PTCLDY    49  42  76 MISG      30.05S
BECKLEY        MOCLDY    47  41  80 N7        29.99S
BLUEFIELD      LGT RAIN  47  41  80 SW8       30.00F
LOGAN CO APT*  CLOUDY    48  37  66 CALM      30.01S
$$

VAZ002-007-008-TNZ017-027-036-066-071-220700
...SOUTHWEST VIRGINIA/EAST TENNESSEE...

CITY           SKY/WX    TMP DP  RH WIND       PRES   REMARKS
WISE*          MOCLDY    46  37  71 W5        30.03F
JONESVILLE*    CLOUDY    45  43  93 CALM      30.06S
ABINGDON*      CLOUDY    46  43  88 CALM      30.02S
BRISTOL        CLOUDY    45  44  97 CALM      30.03S
MORRISTOWN*    MOCLDY    48  45  87 W3        30.02F
SEVIERVILLE*   CLOUDY    45  43  93 CALM      30.05S
KNOXVILLE      MOCLDY    49  47  93 S5        30.03F
LAFOLLETTE*    PTCLDY    52  30  43 CALM      30.08S
OAK RIDGE      CLEAR     44  44 100 CALM      30.06S
CROSSVILLE     CLEAR     43  30  60 W5        30.08S
NASHVILLE      CLEAR     45  34  65 NW8       30.12R
$$

...KEY TO REMARKS...
VSB - VISIBILITY IN MILES
WCI - WIND CHILL INDEX
HX  - HEAT INDEX

$$




USA.gov is the U.S. government's official web portal to all federal, state and local government web resources and services.